Location: Clarion
(42.7316°N, 93.7330°W)
Time: 01:22:45
(UTC+00:00)

Meteor 2-20 - Pass Details

Date: 22 April 2026
Orbit: 937 x 959 km, 82.5° (Epoch: 20 May)

Event Time Altitude Azimuth Distance (km) Brightness Sun altitude
Exits shadow 08:51:01 50° 194° (SSW) 1,198 4.6 -24.3°
Maximum altitude 08:52:45 85° 277° (W) 966 4.3 -24.0°
Drops below altitude 10° 08:58:56 10° 7° (N) 2,690 7.5 -23.2°
Sets 09:01:26 0° 8° (N) 3,636 8.3 -22.9°
